STARLINK-32279 (61003 NORAD) Tracking and Keplerian Element Data

This shows tracking and keplerian element data for the satellite.

Feedback or suggestion? Click here.




ElementValue
Catalog61003
NameSTARLINK-32279
Epoch Orbit699
Epoch Day286.44680447
Epoch Year2024
RAAN295.0139
Inclination53.1613
Eccentricity0.0001368
Argument of Perigee74.6088
Mean Anonmoly285.5068
Mean Motion15.39616585
Decay Rate1.688E-05
L11 61003U 24158P 24286.44680447 .00001688 00000+0 52178-4 0 9998
L22 61003 53.1613 295.0139 0001368 74.6088 285.5068 15.39616585 6998



Live tracking and technical data element details for STARLINK-32279 (NORAD 61003). STARLINK-32279 can be tracked NOW for your location showing map with azimuth and elevation plus other details from your city location.







IsCatalogInMostPopularTable: catalog: 61003, numindb: 9
Update: records affected: 1



GetName: 61003 STARLINK-32279

Hit Count: updated at: Tue, 03 Dec 2024 02:54:25 GMT